Juliana Airport, Sint Maarten

9:56 AM AST on November 24, 2017 (GMT -0400)
Princess Juliana International

Weather History for TNCM - October, 2014

Change the Weather History Date:

Saturday, October 25, 2014

  Actual Average Record
Temperature  
Mean Temperature 84 °F -  
Max Temperature 87 °F 84 °F 89 °F (1996)
Min Temperature 80 °F 74 °F 73 °F (2007)
Cooling Degree Days 18    
Growing Degree Days 34 (Base 50)    
Moisture  
Dew Point 75 °F    
Average Humidity 72    
Maximum Humidity 79    
Minimum Humidity 63    
Precipitation  
Precipitation 0.00 in 0.17 in - ()
Sea Level Pressure  
Sea Level Pressure 29.91 in    
Wind  
Wind Speed 7 mph ()    
Max Wind Speed 12 mph    
Max Gust Speed -    
Visibility 6.2 miles    
Events Rain    
Averages and records for this station are not official NWS values.
T = Trace of Precipitation, MM = Missing Value Source: Averaged Metar Reports

Daily Weather History Graph

Daily Weather History Graph

Search for Another Location

Airport or City:

Trip Planner

Search our weather history database for the weather conditions in past years. The results will help you decide how hot, cold, wet, or windy it might be!

Date:

Astronomy

Oct. 25, 2014 Rise Set
Actual Time 6:09 AM AST 5:43 PM AST
Civil Twilight 5:46 AM AST 6:05 PM AST
Nautical Twilight 5:21 AM AST 6:31 PM AST
Astronomical Twilight 4:55 AM AST 6:57 PM AST
Moon 7:34 AM AST (10/25) 7:14 PM AST (10/25)
Length of Visible Light 12h 19m
Length of Day
11h 34m
Waxing Crescent, 3% of the Moon is Illuminated
Oct 25
Waxing Crescent
Oct 30
First Quarter
Nov 6
Full
Nov 14
Last Quarter
Nov 22
New

Hourly Weather History & Observations

Time (AST) Temp. Heat Index Dew Point Humidity Pressure Visibility Wind Dir Wind Speed Gust Speed Precip Events Conditions
12:00 AM 82.4 °F 89.5 °F 75.2 °F 79% 29.92 in 6.2 mi East 8.1 mph - N/A   Scattered Clouds
1:00 AM 82.4 °F 89.5 °F 75.2 °F 79% 29.89 in 6.2 mi East 6.9 mph - N/A   Scattered Clouds
2:00 AM 82 °F - 75 °F 75% 29.90 in 25 mi East 6.9 mph - -   Scattered Clouds
2:00 AM 82.4 °F 89.5 °F 75.2 °F 79% 29.89 in 6.2 mi East 6.9 mph - N/A   Partly Cloudy
3:00 AM 82.4 °F 89.5 °F 75.2 °F 79% 29.89 in 6.2 mi East 8.1 mph - N/A   Partly Cloudy
4:00 AM 82.4 °F 89.5 °F 75.2 °F 79% 29.89 in 6.2 mi East 6.9 mph - N/A   Partly Cloudy
5:00 AM 82 °F - 74 °F 71% 29.90 in 28 mi East 6.9 mph - -   Partly Cloudy
5:00 AM 82.4 °F 88.2 °F 73.4 °F 74% 29.89 in 6.2 mi East 6.9 mph - N/A   Scattered Clouds
6:00 AM 80.6 °F 85.4 °F 73.4 °F 79% 29.89 in 6.2 mi East 6.9 mph - N/A   Partly Cloudy
7:00 AM 82.4 °F 88.2 °F 73.4 °F 74% 29.92 in 6.2 mi East 8.1 mph - N/A   Partly Cloudy
8:00 AM 84 °F - 73 °F 63% 29.96 in 40 mi East 11.5 mph - -   Partly Cloudy
8:00 AM 84.2 °F 90.9 °F 73.4 °F 70% 29.95 in 6.2 mi East 11.5 mph - N/A   Partly Cloudy
9:00 AM 86.0 °F 95.1 °F 75.2 °F 70% 29.95 in 6.2 mi ESE 10.4 mph - N/A   Partly Cloudy
10:00 AM 86.0 °F 95.1 °F 75.2 °F 70% 29.95 in 6.2 mi ESE 9.2 mph - N/A   Partly Cloudy
11:00 AM 85 °F - 76 °F 68% 29.96 in 44 mi SE 10.4 mph - -   Scattered Clouds
11:00 AM 86.0 °F 95.1 °F 75.2 °F 70% 29.95 in 6.2 mi SE 10.4 mph - N/A   Partly Cloudy
12:00 PM 86.0 °F 95.1 °F 75.2 °F 70% 29.92 in 6.2 mi SE 10.4 mph - N/A   Scattered Clouds
1:00 PM 87.8 °F 97.6 °F 75.2 °F 66% 29.89 in 6.2 mi SE 9.2 mph - N/A   Scattered Clouds
2:00 PM 86 °F - 76 °F 65% 29.89 in 25 mi SSE 6.9 mph - -  
2:00 PM 86.0 °F 95.1 °F 75.2 °F 70% 29.89 in 6.2 mi SSE 8.1 mph - N/A   Scattered Clouds
3:00 PM 86.0 °F 96.9 °F 77.0 °F 74% 29.86 in 6.2 mi SE 9.2 mph - N/A Rain Light Rain Showers
4:00 PM 86.0 °F 95.1 °F 75.2 °F 70% 29.86 in 6.2 mi SE 10.4 mph - N/A   Partly Cloudy
5:00 PM 85 °F - 75 °F 65% 29.88 in 25 mi SSE 9.2 mph - -   Partly Cloudy
5:00 PM 86.0 °F 95.1 °F 75.2 °F 70% 29.86 in 6.2 mi SE 9.2 mph - N/A   Partly Cloudy
6:00 PM 84.2 °F 90.9 °F 73.4 °F 70% 29.86 in 6.2 mi ESE 8.1 mph - N/A   Partly Cloudy
7:00 PM 84.2 °F 90.9 °F 73.4 °F 70% 29.89 in 6.2 mi ESE 9.2 mph - N/A   Partly Cloudy
8:00 PM 83 °F - 73 °F 66% 29.91 in 25 mi ESE 6.9 mph - -   Partly Cloudy
8:00 PM 84.2 °F 90.9 °F 73.4 °F 70% 29.89 in 6.2 mi ESE 6.9 mph - N/A   Partly Cloudy
9:00 PM 84.2 °F 92.3 °F 75.2 °F 74% 29.92 in 6.2 mi ESE 4.6 mph - N/A   Partly Cloudy
10:00 PM 82.4 °F 89.5 °F 75.2 °F 79% 29.92 in 6.2 mi ESE 6.9 mph - N/A   Partly Cloudy
11:00 PM 83 °F - 74 °F 68% 29.92 in 28 mi ESE 8.1 mph - -   Scattered Clouds
11:00 PM 82.4 °F 88.2 °F 73.4 °F 74% 29.92 in 6.2 mi ESE 8.1 mph - N/A   Partly Cloudy